| time (UTC) | temp F | wind direction | speed MPH | gust MPH | rain 1hr in | rain 24hr in | rain mn in | humidity % | barometer mb |
| 20260906093222 | 73 | 161 | 0.0 | 4.0 | 0.00 | 0.01 | 0.00 | 51 | 1027.0 |
| 20260906092727 | 73 | 153 | 0.0 | 0.0 | 0.00 | 0.01 | 0.00 | 47 | 1027.0 |
| 20260906092219 | 73 | 301 | 0.0 | 0.0 | 0.00 | 0.01 | 0.00 | 48 | 1027.0 |
| 20260906091707 | 73 | 148 | 0.0 | 1.0 | 0.00 | 0.01 | 0.00 | 50 | 1027.0 |
| 20260906091221 | 72 | 157 | 0.0 | 3.0 | 0.00 | 0.01 | 0.00 | 50 | 1027.0 |
| 20260906090724 | 71 | 154 | 0.0 | 3.0 | 0.00 | 0.01 | 0.00 | 49 | 1027.1 |
| 20260906090227 | 71 | 175 | 0.0 | 3.0 | 0.00 | 0.01 | 0.00 | 51 | 1027.1 |
| 20260906085708 | 71 | 181 | 0.0 | 4.0 | 0.00 | 0.01 | 0.00 | 51 | 1027.1 |
| 20260906085211 | 70 | 181 | 0.0 | 5.0 | 0.00 | 0.01 | 0.00 | 50 | 1027.0 |
| 20260906084723 | 70 | 171 | 1.0 | 5.0 | 0.00 | 0.01 | 0.00 | 51 | 1027.0 |
| 20260906084222 | 70 | 172 | 1.0 | 5.0 | 0.00 | 0.01 | 0.00 | 52 | 1027.1 |
| 20260906083714 | 69 | 173 | 2.0 | 5.0 | 0.00 | 0.01 | 0.00 | 53 | 1027.1 |
| 20260906082706 | 69 | 186 | 1.0 | 5.0 | 0.00 | 0.01 | 0.00 | 55 | 1027.1 |
| 20260906082212 | 68 | 175 | 1.0 | 5.0 | 0.00 | 0.01 | 0.00 | 54 | 1027.2 |
| 20260906081712 | 68 | 180 | 0.0 | 0.0 | 0.00 | 0.01 | 0.00 | 56 | 1027.2 |
| 20260906081225 | 68 | 178 | 0.0 | 0.0 | 0.00 | 0.01 | 0.00 | 58 | 1027.3 |
| 20260906080719 | 67 | 180 | 0.0 | 0.0 | 0.00 | 0.01 | 0.00 | 57 | 1027.3 |
| 20260906080221 | 67 | 169 | 0.0 | 0.0 | 0.00 | 0.01 | 0.00 | 58 | 1027.3 |
| 20260906075712 | 67 | 155 | 0.0 | 0.0 | 0.00 | 0.01 | 0.00 | 61 | 1027.2 |
| 20260906075230 | 66 | 148 | 0.0 | 0.0 | 0.00 | 0.01 | 0.00 | 61 | 1027.3 |
| 20260906074208 | 65 | 126 | 0.0 | 0.0 | 0.00 | 0.01 | 0.00 | 65 | 1027.2 |
| 20260906073222 | 64 | 126 | 0.0 | 0.0 | 0.00 | 0.02 | 0.00 | 71 | 1027.2 |
| 20260906072720 | 63 | 126 | 0.0 | 0.0 | 0.00 | 0.04 | 0.00 | 72 | 1027.2 |
| 20260906072215 | 62 | 126 | 0.0 | 0.0 | 0.00 | 0.05 | 0.00 | 72 | 1027.2 |
| 20260906071723 | 61 | 126 | 0.0 | 0.0 | 0.00 | 0.05 | 0.00 | 77 | 1027.2 |
| 20260906071228 | 60 | 126 | 0.0 | 0.0 | 0.00 | 0.05 | 0.00 | 76 | 1027.2 |
| 20260906070744 | 59 | 126 | 0.0 | 0.0 | 0.00 | 0.05 | 0.00 | 82 | 1027.3 |
| 20260906070216 | 59 | 126 | 0.0 | 0.0 | 0.00 | 0.05 | 0.00 | 84 | 1027.2 |
| 20260906065725 | 58 | 126 | 0.0 | 0.0 | 0.00 | 0.05 | 0.00 | 85 | 1027.2 |
| 20260906065213 | 57 | 126 | 0.0 | 0.0 | 0.00 | 0.05 | 0.00 | 85 | 1027.3 |
| 20260906064726 | 56 | 126 | 0.0 | 0.0 | 0.00 | 0.05 | 0.00 | 86 | 1027.3 |
| 20260906064213 | 55 | 126 | 0.0 | 0.0 | 0.00 | 0.05 | 0.00 | 88 | 1027.3 |
| 20260906063716 | 55 | 126 | 0.0 | 0.0 | 0.00 | 0.05 | 0.00 | 90 | 1027.4 |
| 20260906062726 | 53 | 126 | 0.0 | 0.0 | 0.00 | 0.05 | 0.00 | 91 | 1027.4 |
| 20260906062216 | 53 | 126 | 0.0 | 0.0 | 0.00 | 0.05 | 0.00 | 90 | 1027.4 |
| 20260906061722 | 52 | 126 | 0.0 | 0.0 | 0.00 | 0.05 | 0.00 | 90 | 1027.4 |
| 20260906061215 | 52 | 126 | 0.0 | 0.0 | 0.00 | 0.05 | 0.00 | 89 | 1027.4 |
| 20260906060724 | 52 | 126 | 0.0 | 0.0 | 0.00 | 0.05 | 0.00 | 90 | 1027.4 |
| 20260906060229 | 52 | 126 | 0.0 | 0.0 | 0.00 | 0.05 | 0.00 | 89 | 1027.3 |
| 20260906055711 | 52 | 126 | 0.0 | 0.0 | 0.00 | 0.05 | 0.00 | 89 | 1027.3 |
| 20260906055220 | 52 | 126 | 0.0 | 0.0 | 0.00 | 0.05 | 0.00 | 90 | 1027.3 |
| 20260906054718 | 52 | 126 | 0.0 | 0.0 | 0.00 | 0.05 | 0.00 | 90 | 1027.2 |
| 20260906054209 | 52 | 126 | 0.0 | 0.0 | 0.00 | 0.05 | 0.00 | 89 | 1027.2 |
| 20260906053224 | 52 | 126 | 0.0 | 1.0 | 0.00 | 0.05 | 0.00 | 89 | 1027.3 |
| 20260906052728 | 52 | 96 | 0.0 | 5.0 | 0.00 | 0.05 | 0.00 | 90 | 1027.3 |
| 20260906052221 | 52 | 13 | 0.0 | 5.0 | 0.00 | 0.05 | 0.00 | 90 | 1027.3 |
| 20260906051740 | 52 | 13 | 0.0 | 3.0 | 0.00 | 0.05 | 0.00 | 90 | 1027.1 |
| 20260906051219 | 52 | 5 | 0.0 | 0.0 | 0.00 | 0.05 | 0.00 | 90 | 1027.0 |
| 20260906050717 | 52 | 5 | 0.0 | 0.0 | 0.00 | 0.05 | 0.00 | 89 | 1027.0 |
| 20260906050232 | 52 | 117 | 0.0 | 0.0 | 0.00 | 0.05 | 0.00 | 89 | 1027.0 |
| 20260906045716 | 52 | 117 | 0.0 | 0.0 | 0.00 | 0.05 | 0.00 | 89 | 1027.0 |
| 20260906045222 | 52 | 15 | 0.0 | 0.0 | 0.00 | 0.05 | 0.00 | 89 | 1027.0 |
| 20260906044731 | 52 | 15 | 0.0 | 0.0 | 0.00 | 0.05 | 0.00 | 89 | 1027.1 |
| 20260906044215 | 52 | 15 | 0.0 | 0.0 | 0.00 | 0.05 | 0.00 | 89 | 1027.1 |
| 20260906043728 | 52 | 15 | 0.0 | 0.0 | 0.00 | 0.05 | 0.00 | 89 | 1027.1 |
| 20260906043217 | 52 | 15 | 0.0 | 0.0 | 0.00 | 0.05 | 0.00 | 89 | 1027.1 |
| 20260906042725 | 52 | 15 | 0.0 | 0.0 | 0.00 | 0.05 | 0.00 | 89 | 1027.0 |
| 20260906042215 | 52 | 15 | 0.0 | 0.0 | 0.00 | 0.05 | 0.00 | 89 | 1027.0 |
| 20260906041749 | 52 | 15 | 0.0 | 0.0 | 0.00 | 0.05 | 0.00 | 89 | 1027.0 |
| 20260906041301 | 52 | 15 | 0.0 | 0.0 | 0.00 | 0.05 | 0.00 | 88 | 1027.0 |
| 20260906040719 | 52 | 15 | 0.0 | 0.0 | 0.00 | 0.06 | 0.00 | 88 | 1026.8 |
| 20260906040236 | 52 | 15 | 0.0 | 0.0 | 0.00 | 0.06 | 0.00 | 88 | 1027.0 |
| 20260906035711 | 52 | 15 | 0.0 | 0.0 | 0.00 | 0.06 | 0.00 | 88 | 1027.1 |
| 20260906035222 | 52 | 15 | 0.0 | 0.0 | 0.00 | 0.06 | 0.00 | 88 | 1027.0 |
| 20260906034723 | 53 | 15 | 0.0 | 0.0 | 0.00 | 0.06 | 0.00 | 88 | 1027.0 |
| 20260906034216 | 53 | 15 | 0.0 | 0.0 | 0.00 | 0.06 | 0.00 | 88 | 1027.1 |
| 20260906033715 | 53 | 15 | 0.0 | 0.0 | 0.00 | 0.06 | 0.00 | 88 | 1027.0 |
| 20260906033219 | 53 | 15 | 0.0 | 0.0 | 0.00 | 0.06 | 0.00 | 88 | 1027.1 |
| 20260906032209 | 53 | 15 | 0.0 | 0.0 | 0.00 | 0.06 | 0.00 | 88 | 1027.1 |
| 20260906031220 | 53 | 15 | 0.0 | 0.0 | 0.00 | 0.06 | 0.00 | 88 | 1027.3 |
| 20260906030725 | 53 | 20 | 0.0 | 0.0 | 0.00 | 0.06 | 0.00 | 88 | 1027.3 |
| 20260906025719 | 53 | 31 | 0.0 | 0.0 | 0.00 | 0.06 | 0.00 | 88 | 1027.4 |
| 20260906025217 | 53 | 28 | 0.0 | 0.0 | 0.00 | 0.06 | 0.00 | 88 | 1027.4 |
| 20260906024721 | 53 | 28 | 0.0 | 0.0 | 0.00 | 0.06 | 0.00 | 88 | 1027.4 |
| 20260906024223 | 53 | 28 | 0.0 | 0.0 | 0.00 | 0.06 | 0.00 | 88 | 1027.3 |
| 20260906023709 | 53 | 28 | 0.0 | 0.0 | 0.00 | 0.06 | 0.00 | 88 | 1027.4 |
| 20260906023226 | 53 | 28 | 0.0 | 0.0 | 0.00 | 0.06 | 0.00 | 88 | 1027.4 |
| 20260906022730 | 53 | 20 | 0.0 | 0.0 | 0.00 | 0.06 | 0.00 | 88 | 1027.4 |
| 20260906022233 | 53 | 20 | 0.0 | 0.0 | 0.00 | 0.06 | 0.00 | 88 | 1027.3 |
| 20260906021718 | 53 | 20 | 0.0 | 0.0 | 0.00 | 0.06 | 0.00 | 88 | 1027.3 |
| 20260906020727 | 53 | 25 | 0.0 | 0.0 | 0.00 | 0.06 | 0.00 | 88 | 1027.1 |
| 20260906020227 | 53 | 148 | 0.0 | 0.0 | 0.00 | 0.06 | 0.00 | 88 | 1027.1 |
| 20260906015226 | 53 | 123 | 0.0 | 0.0 | 0.00 | 0.06 | 0.00 | 88 | 1027.1 |
| 20260906014715 | 53 | 133 | 0.0 | 0.0 | 0.00 | 0.06 | 0.00 | 88 | 1027.0 |
| 20260906014220 | 53 | 133 | 0.0 | 0.0 | 0.00 | 0.06 | 0.00 | 88 | 1027.0 |
| 20260906013725 | 53 | 133 | 0.0 | 0.0 | 0.00 | 0.06 | 0.00 | 88 | 1027.1 |
| 20260906013220 | 53 | 133 | 0.0 | 0.0 | 0.00 | 0.06 | 0.00 | 88 | 1027.1 |
| 20260906012211 | 53 | 98 | 0.0 | 0.0 | 0.00 | 0.06 | 0.00 | 87 | 1027.0 |
| 20260906011220 | 53 | 113 | 0.0 | 0.0 | 0.00 | 0.06 | 0.00 | 87 | 1027.1 |
| 20260906010229 | 54 | 113 | 0.0 | 0.0 | 0.00 | 0.06 | 0.00 | 87 | 1027.3 |
| 20260906005709 | 54 | 113 | 0.0 | 0.0 | 0.00 | 0.06 | 0.00 | 86 | 1027.4 |
| 20260906005217 | 54 | 113 | 0.0 | 0.0 | 0.00 | 0.06 | 0.00 | 87 | 1027.4 |
| 20260906004725 | 54 | 116 | 0.0 | 0.0 | 0.00 | 0.06 | 0.00 | 86 | 1027.4 |
| 20260906003212 | 54 | 116 | 0.0 | 0.0 | 0.00 | 0.06 | 0.00 | 86 | 1027.4 |
| 20260906002725 | 54 | 116 | 0.0 | 0.0 | 0.00 | 0.06 | 0.00 | 86 | 1027.4 |
| 20260906002229 | 54 | 116 | 0.0 | 0.0 | 0.00 | 0.06 | 0.00 | 86 | 1027.5 |
| 20260906001745 | 54 | 116 | 0.0 | 0.0 | 0.00 | 0.06 | 0.00 | 85 | 1027.5 |
| 20260906001215 | 55 | 116 | 0.0 | 0.0 | 0.00 | 0.06 | 0.00 | 85 | 1027.5 |
| 20260906000219 | 55 | 118 | 0.0 | 2.0 | 0.00 | 0.06 | 0.00 | 85 | 1027.5 |
| 20260905235722 | 55 | 118 | 0.0 | 0.0 | 0.00 | 0.06 | 0.00 | 85 | 1027.6 |
| 20260905235222 | 55 | 18 | 0.0 | 0.0 | 0.00 | 0.06 | 0.00 | 85 | 1027.6 |
| 20260905234717 | 55 | 5 | 0.0 | 0.0 | 0.00 | 0.06 | 0.00 | 85 | 1027.6 |
| 20260905234219 | 55 | 333 | 0.0 | 9.0 | 0.00 | 0.06 | 0.00 | 85 | 1027.6 |
| 20260905233719 | 55 | 346 | 1.0 | 9.0 | 0.00 | 0.06 | 0.00 | 84 | 1027.6 |
| 20260905232729 | 55 | 343 | 0.0 | 0.0 | 0.00 | 0.06 | 0.00 | 85 | 1027.6 |
| 20260905232218 | 55 | 61 | 0.0 | 0.0 | 0.00 | 0.06 | 0.00 | 85 | 1027.7 |
| 20260905231726 | 55 | 78 | 0.0 | 0.0 | 0.00 | 0.06 | 0.00 | 85 | 1027.7 |
| 20260905230738 | 55 | 34 | 0.0 | 0.0 | 0.00 | 0.06 | 0.00 | 84 | 1027.7 |
| 20260905230221 | 55 | 25 | 0.0 | 0.0 | 0.00 | 0.06 | 0.00 | 85 | 1027.7 |
| 20260905225710 | 55 | 25 | 0.0 | 0.0 | 0.00 | 0.06 | 0.00 | 85 | 1027.6 |
| 20260905225221 | 55 | 53 | 0.0 | 0.0 | 0.00 | 0.06 | 0.00 | 85 | 1027.6 |
| 20260905224714 | 55 | 132 | 0.0 | 0.0 | 0.00 | 0.06 | 0.00 | 85 | 1027.6 |
| 20260905224218 | 55 | 22 | 0.0 | 0.0 | 0.00 | 0.06 | 0.00 | 84 | 1027.7 |
| 20260905223727 | 55 | 22 | 0.0 | 0.0 | 0.00 | 0.06 | 0.00 | 84 | 1027.7 |
| 20260905222720 | 55 | 22 | 0.0 | 0.0 | 0.00 | 0.06 | 0.00 | 84 | 1027.7 |
| 20260905222223 | 55 | 45 | 0.0 | 0.0 | 0.00 | 0.06 | 0.00 | 83 | 1027.8 |
| 20260905221731 | 55 | 45 | 0.0 | 0.0 | 0.00 | 0.06 | 0.00 | 83 | 1027.9 |
| 20260905221215 | 56 | 45 | 0.0 | 0.0 | 0.00 | 0.06 | 0.00 | 83 | 1027.8 |
| 20260905220727 | 56 | 45 | 0.0 | 0.0 | 0.00 | 0.06 | 0.00 | 82 | 1027.8 |
| 20260905215719 | 56 | 47 | 0.0 | 0.0 | 0.00 | 0.06 | 0.06 | 81 | 1027.7 |
| 20260905215209 | 56 | 47 | 0.0 | 0.0 | 0.00 | 0.06 | 0.06 | 82 | 1027.8 |
| 20260905214712 | 56 | 47 | 0.0 | 0.0 | 0.00 | 0.06 | 0.06 | 81 | 1027.8 |
| 20260905213717 | 55 | 355 | 0.0 | 0.0 | 0.00 | 0.06 | 0.06 | 82 | 1027.7 |
| 20260905213226 | 55 | 355 | 0.0 | 0.0 | 0.00 | 0.06 | 0.06 | 81 | 1027.8 |
| 20260905212725 | 56 | 60 | 0.0 | 0.0 | 0.00 | 0.06 | 0.06 | 81 | 1027.7 |
| 20260905212222 | 56 | 263 | 0.0 | 0.0 | 0.00 | 0.06 | 0.06 | 81 | 1027.7 |
| 20260905211720 | 56 | 55 | 0.0 | 0.0 | 0.00 | 0.06 | 0.06 | 80 | 1027.7 |
| 20260905210722 | 56 | 55 | 0.0 | 0.0 | 0.00 | 0.06 | 0.06 | 80 | 1027.7 |
| 20260905210215 | 56 | 55 | 0.0 | 0.0 | 0.00 | 0.06 | 0.06 | 80 | 1027.7 |
| 20260905205719 | 56 | 55 | 0.0 | 0.0 | 0.00 | 0.06 | 0.06 | 79 | 1027.7 |
| 20260905204729 | 56 | 55 | 0.0 | 0.0 | 0.00 | 0.06 | 0.06 | 79 | 1027.7 |
| 20260905204212 | 56 | 55 | 0.0 | 0.0 | 0.00 | 0.06 | 0.06 | 78 | 1027.7 |
| 20260905203718 | 56 | 55 | 0.0 | 0.0 | 0.00 | 0.06 | 0.06 | 78 | 1027.7 |
| 20260905203216 | 57 | 55 | 0.0 | 0.0 | 0.00 | 0.06 | 0.06 | 78 | 1027.7 |
| 20260905202724 | 57 | 55 | 0.0 | 0.0 | 0.00 | 0.06 | 0.06 | 78 | 1027.7 |
| 20260905202224 | 57 | 33 | 0.0 | 0.0 | 0.00 | 0.06 | 0.06 | 77 | 1027.6 |
| 20260905201708 | 57 | 33 | 0.0 | 0.0 | 0.00 | 0.06 | 0.06 | 77 | 1027.5 |
| 20260905201221 | 57 | 32 | 0.0 | 0.0 | 0.00 | 0.06 | 0.06 | 77 | 1027.4 |
| 20260905200722 | 58 | 33 | 0.0 | 0.0 | 0.00 | 0.06 | 0.06 | 77 | 1027.4 |
| 20260905200227 | 58 | 33 | 0.0 | 0.0 | 0.00 | 0.06 | 0.06 | 76 | 1027.4 |
| 20260905195718 | 58 | 33 | 0.0 | 0.0 | 0.00 | 0.06 | 0.06 | 76 | 1027.4 |
| 20260905195223 | 58 | 27 | 0.0 | 0.0 | 0.00 | 0.06 | 0.06 | 76 | 1027.4 |
| 20260905194714 | 58 | 27 | 0.0 | 0.0 | 0.00 | 0.06 | 0.06 | 75 | 1027.4 |
| 20260905194219 | 58 | 27 | 0.0 | 0.0 | 0.00 | 0.06 | 0.06 | 75 | 1027.3 |
| 20260905193227 | 59 | 27 | 0.0 | 0.0 | 0.00 | 0.06 | 0.06 | 74 | 1027.1 |
| 20260905192717 | 59 | 27 | 0.0 | 0.0 | 0.00 | 0.06 | 0.06 | 74 | 1027.0 |
| 20260905192216 | 60 | 27 | 0.0 | 0.0 | 0.00 | 0.06 | 0.06 | 73 | 1027.0 |
| 20260905191223 | 60 | 27 | 0.0 | 0.0 | 0.00 | 0.06 | 0.06 | 73 | 1027.1 |
| 20260905190717 | 60 | 0 | 0.0 | 0.0 | 0.00 | 0.06 | 0.06 | 73 | 1027.0 |
| 20260905190224 | 60 | 0 | 0.0 | 0.0 | 0.00 | 0.06 | 0.06 | 72 | 1026.8 |
| 20260905185215 | 61 | 0 | 0.0 | 0.0 | 0.00 | 0.06 | 0.06 | 71 | 1026.8 |
| 20260905184720 | 61 | 0 | 0.0 | 0.0 | 0.00 | 0.06 | 0.06 | 71 | 1026.8 |
| 20260905183214 | 62 | 0 | 0.0 | 4.0 | 0.00 | 0.06 | 0.06 | 70 | 1026.6 |
| 20260905182718 | 62 | 312 | 0.0 | 4.0 | 0.00 | 0.06 | 0.06 | 70 | 1026.5 |
| 20260905182218 | 62 | 317 | 1.0 | 4.0 | 0.00 | 0.06 | 0.06 | 70 | 1026.4 |
| 20260905181223 | 62 | 342 | 0.0 | 0.0 | 0.00 | 0.06 | 0.06 | 69 | 1026.3 |
| 20260905180727 | 62 | 331 | 0.0 | 0.0 | 0.00 | 0.06 | 0.06 | 69 | 1026.3 |
| 20260905180218 | 63 | 331 | 0.0 | 0.0 | 0.00 | 0.06 | 0.06 | 69 | 1026.3 |
| 20260905175716 | 63 | 17 | 0.0 | 0.0 | 0.00 | 0.06 | 0.06 | 68 | 1026.3 |
| 20260905174234 | 64 | 5 | 0.0 | 0.0 | 0.00 | 0.06 | 0.06 | 67 | 1026.3 |
| 20260905173720 | 64 | 5 | 0.0 | 0.0 | 0.00 | 0.06 | 0.06 | 67 | 1026.3 |
| 20260905173253 | 64 | 24 | 0.0 | 0.0 | 0.00 | 0.06 | 0.06 | 67 | 1026.3 |
| 20260905172723 | 65 | 25 | 0.0 | 0.0 | 0.00 | 0.06 | 0.06 | 64 | 1026.2 |
| 20260905171713 | 65 | 5 | 0.0 | 0.0 | 0.00 | 0.06 | 0.06 | 65 | 1026.1 |
| 20260905171240 | 65 | 355 | 0.0 | 0.0 | 0.00 | 0.06 | 0.06 | 65 | 1026.2 |
| 20260905170717 | 65 | 323 | 0.0 | 0.0 | 0.00 | 0.06 | 0.06 | 64 | 1026.1 |
| 20260905170211 | 66 | 326 | 0.0 | 0.0 | 0.00 | 0.06 | 0.06 | 64 | 1026.0 |
| 20260905165712 | 66 | 319 | 0.0 | 0.0 | 0.00 | 0.06 | 0.06 | 63 | 1026.0 |
| 20260905164725 | 67 | 308 | 1.0 | 6.0 | 0.00 | 0.06 | 0.06 | 62 | 1026.0 |
| 20260905164216 | 68 | 327 | 1.0 | 6.0 | 0.00 | 0.06 | 0.06 | 61 | 1026.0 |
| 20260905163734 | 69 | 340 | 0.0 | 3.0 | 0.00 | 0.06 | 0.06 | 60 | 1026.0 |
| 20260905163216 | 70 | 339 | 0.0 | 3.0 | 0.00 | 0.06 | 0.06 | 58 | 1026.0 |
| 20260905162710 | 70 | 330 | 0.0 | 0.0 | 0.00 | 0.06 | 0.06 | 59 | 1026.0 |
| 20260905161723 | 69 | 310 | 0.0 | 0.0 | 0.00 | 0.06 | 0.06 | 63 | 1025.9 |
| 20260905161221 | 69 | 320 | 0.0 | 0.0 | 0.00 | 0.06 | 0.06 | 65 | 1025.9 |
| 20260905160733 | 69 | 323 | 0.0 | 0.0 | 0.00 | 0.06 | 0.06 | 66 | 1025.9 |
| 20260905160232 | 69 | 254 | 0.0 | 0.0 | 0.00 | 0.06 | 0.06 | 69 | 1025.9 |
| 20260905155732 | 69 | 273 | 0.0 | 5.0 | 0.00 | 0.06 | 0.06 | 68 | 1025.9 |
| 20260905155223 | 69 | 190 | 0.0 | 6.0 | 0.00 | 0.06 | 0.06 | 72 | 1025.9 |
| 20260905154717 | 69 | 202 | 1.0 | 6.0 | 0.00 | 0.06 | 0.06 | 71 | 1025.9 |
| 20260905154212 | 70 | 180 | 1.0 | 6.0 | 0.00 | 0.06 | 0.06 | 70 | 1025.8 |
| 20260905153717 | 70 | 174 | 1.0 | 5.0 | 0.00 | 0.06 | 0.06 | 70 | 1025.9 |
| 20260905153215 | 69 | 192 | 1.0 | 4.0 | 0.00 | 0.06 | 0.06 | 70 | 1026.0 |
| 20260905152728 | 69 | 175 | 0.0 | 0.0 | 0.00 | 0.06 | 0.06 | 69 | 1026.0 |
| 20260905152225 | 69 | 175 | 0.0 | 0.0 | 0.00 | 0.06 | 0.06 | 69 | 1026.0 |
| 20260905151717 | 70 | 189 | 0.0 | 4.0 | 0.00 | 0.06 | 0.06 | 68 | 1026.0 |
| 20260905151219 | 70 | 169 | 0.0 | 6.0 | 0.00 | 0.06 | 0.06 | 70 | 1026.0 |
| 20260905150714 | 69 | 185 | 1.0 | 6.0 | 0.00 | 0.06 | 0.06 | 69 | 1025.9 |
| 20260905145731 | 69 | 213 | 3.0 | 8.0 | 0.00 | 0.06 | 0.06 | 71 | 1026.0 |
| 20260905145223 | 69 | 167 | 4.0 | 8.0 | 0.00 | 0.06 | 0.06 | 72 | 1026.0 |
| 20260905144722 | 68 | 169 | 4.0 | 8.0 | 0.00 | 0.06 | 0.06 | 72 | 1026.0 |
| 20260905144229 | 68 | 163 | 2.0 | 6.0 | 0.00 | 0.06 | 0.06 | 74 | 1026.0 |
| 20260905143716 | 68 | 200 | 2.0 | 6.0 | 0.00 | 0.06 | 0.06 | 73 | 1026.1 |
| 20260905143221 | 68 | 174 | 2.0 | 6.0 | 0.00 | 0.06 | 0.06 | 72 | 1026.1 |
| 20260905142230 | 68 | 145 | 1.0 | 6.0 | 0.00 | 0.06 | 0.06 | 72 | 1026.1 |
| 20260905141717 | 67 | 180 | 1.0 | 6.0 | 0.00 | 0.06 | 0.06 | 73 | 1026.2 |
| 20260905141221 | 67 | 178 | 2.0 | 6.0 | 0.00 | 0.06 | 0.06 | 74 | 1026.2 |
| 20260905140226 | 67 | 176 | 3.0 | 6.0 | 0.00 | 0.06 | 0.06 | 74 | 1026.3 |
| 20260905135726 | 67 | 178 | 2.0 | 6.0 | 0.00 | 0.06 | 0.06 | 73 | 1026.3 |
| 20260905135225 | 66 | 176 | 1.0 | 7.0 | 0.00 | 0.06 | 0.06 | 74 | 1026.3 |
| 20260905134748 | 66 | 184 | 1.0 | 7.0 | 0.00 | 0.06 | 0.06 | 75 | 1026.3 |
| 20260905134224 | 65 | 194 | 2.0 | 6.0 | 0.00 | 0.06 | 0.06 | 74 | 1026.4 |
| 20260905133220 | 64 | 167 | 1.0 | 7.0 | 0.00 | 0.06 | 0.06 | 74 | 1026.3 |
| 20260905132221 | 65 | 160 | 4.0 | 8.0 | 0.00 | 0.06 | 0.06 | 72 | 1026.3 |
| 20260905131718 | 65 | 159 | 2.0 | 7.0 | 0.00 | 0.06 | 0.06 | 72 | 1026.2 |
| 20260905131247 | 65 | 172 | 0.0 | 0.0 | 0.00 | 0.06 | 0.06 | 73 | 1026.3 |
| 20260905130706 | 64 | 163 | 0.0 | 6.0 | 0.00 | 0.06 | 0.06 | 76 | 1026.3 |
| 20260905130217 | 63 | 153 | 1.0 | 6.0 | 0.00 | 0.06 | 0.06 | 76 | 1026.2 |
| 20260905125730 | 63 | 173 | 2.0 | 7.0 | 0.00 | 0.06 | 0.06 | 76 | 1026.2 |
| 20260905125215 | 63 | 171 | 2.0 | 7.0 | 0.00 | 0.06 | 0.06 | 76 | 1026.1 |
| 20260905124721 | 63 | 165 | 2.0 | 8.0 | 0.00 | 0.06 | 0.06 | 76 | 1026.1 |
| 20260905123711 | 63 | 173 | 2.0 | 8.0 | 0.00 | 0.06 | 0.06 | 78 | 1026.1 |
| 20260905123209 | 63 | 131 | 3.0 | 8.0 | 0.00 | 0.06 | 0.06 | 79 | 1026.2 |
| 20260905122715 | 64 | 156 | 3.0 | 8.0 | 0.00 | 0.06 | 0.06 | 78 | 1026.1 |
| 20260905121720 | 64 | 155 | 2.0 | 7.0 | 0.00 | 0.06 | 0.06 | 76 | 1026.0 |
| 20260905120226 | 65 | 141 | 0.0 | 8.0 | 0.01 | 0.06 | 0.06 | 73 | 1025.9 |
| 20260905115730 | 65 | 150 | 2.0 | 8.0 | 0.01 | 0.06 | 0.06 | 73 | 1025.9 |
| 20260905115231 | 65 | 328 | 4.0 | 9.0 | 0.01 | 0.06 | 0.06 | 72 | 1026.0 |
| 20260905114709 | 65 | 355 | 5.0 | 9.0 | 0.01 | 0.06 | 0.06 | 72 | 1026.1 |
| 20260905114216 | 65 | 311 | 4.0 | 9.0 | 0.01 | 0.06 | 0.06 | 72 | 1026.0 |
| 20260905113722 | 65 | 332 | 3.0 | 7.0 | 0.01 | 0.06 | 0.06 | 71 | 1025.9 |
| 20260905113211 | 65 | 258 | 3.0 | 10.0 | 0.01 | 0.06 | 0.06 | 72 | 1025.9 |
| 20260905112725 | 65 | 265 | 3.0 | 10.0 | 0.01 | 0.06 | 0.06 | 71 | 1026.0 |
| 20260905112220 | 65 | 295 | 4.0 | 10.0 | 0.01 | 0.06 | 0.06 | 70 | 1026.0 |
| 20260905111716 | 65 | 231 | 4.0 | 10.0 | 0.01 | 0.06 | 0.06 | 69 | 1026.0 |
| 20260905111229 | 65 | 293 | 3.0 | 10.0 | 0.01 | 0.06 | 0.06 | 70 | 1025.9 |
| 20260905110715 | 65 | 328 | 3.0 | 6.0 | 0.00 | 0.05 | 0.05 | 72 | 1025.9 |
| 20260905110221 | 65 | 242 | 3.0 | 6.0 | 0.00 | 0.05 | 0.05 | 74 | 1025.8 |
| 20260905105729 | 65 | 282 | 2.0 | 9.0 | 0.00 | 0.05 | 0.05 | 74 | 1025.8 |
| 20260905105226 | 65 | 290 | 2.0 | 11.0 | 0.00 | 0.05 | 0.05 | 74 | 1025.7 |
| 20260905104212 | 66 | 339 | 4.0 | 11.0 | 0.00 | 0.05 | 0.05 | 76 | 1025.5 |
| 20260905103706 | 66 | 323 | 3.0 | 9.0 | 0.00 | 0.05 | 0.05 | 75 | 1025.7 |
| 20260905103222 | 66 | 346 | 2.0 | 9.0 | 0.00 | 0.05 | 0.05 | 74 | 1025.7 |
| 20260905102723 | 66 | 347 | 3.0 | 9.0 | 0.00 | 0.05 | 0.05 | 73 | 1025.7 |
| 20260905102230 | 66 | 255 | 2.0 | 9.0 | 0.00 | 0.05 | 0.05 | 72 | 1025.7 |
| 20260905101720 | 67 | 26 | 1.0 | 9.0 | 0.00 | 0.05 | 0.05 | 70 | 1025.5 |
| 20260905100226 | 66 | 209 | 0.0 | 0.0 | 0.00 | 0.05 | 0.05 | 74 | 1025.3 |
| 20260905095716 | 65 | 336 | 0.0 | 0.0 | 0.00 | 0.05 | 0.05 | 75 | 1025.3 |
| 20260905095210 | 65 | 151 | 0.0 | 0.0 | 0.00 | 0.05 | 0.05 | 73 | 1025.3 |
| 20260905094722 | 64 | 0 | 0.0 | 0.0 | 0.00 | 0.05 | 0.05 | 76 | 1025.3 |
| 20260905094218 | 64 | 267 | 0.0 | 0.0 | 0.00 | 0.05 | 0.05 | 78 | 1025.3 |
| 20260905093726 | 64 | 263 | 0.0 | 0.0 | 0.00 | 0.05 | 0.05 | 81 | 1025.2 |